Presure
287 285 293 279 293 298 296 296 283 282 307 309 306 310 301 265 276 286 289 291 278 265 258 251 251 243 234 235 239 241 252 241 245 252 256 248 244 243 242 238 230 243 247 238 252 247 124 139 154 79 132 284 282 276
298 296 283 284 295 287 278 282 300 297 294 285 291 296 296 295 283 261 265 273 280 281 282 273 267 261 259 259 251 253 250 253 256 238 230 255 246 242 237 238 255 241 250 241 246 290 263 263 288 292 281 276 269 269
344 315 294 298 284 288 291 284 278 276 282 293 280 289 297 292 288 303 287 259 267 267 268 271 270 266 260 251 261 257 255 246 249 250 246 244 247 256 256 256 264 265 260 277 270 271 311 296 290 285 273 269 267 267
379 379 323 309 311 293 302 293 290 290 287 290 297 284 284 289 281 298 286 288 286 285 266 253 252 256 261 263 259 254 255 258 258 260 275 262 274 273 270 287 291 287 267 274 276 292 286 269 269 276 267 270 264 265
319 391 378 361 319 313 303 302 308 296 294 286 285 287 284 276 293 278 287 278 278 277 273 284 278 273 273 265 252 249 251 259 262 255 261 267 269 271 275 281 266 252 261 273 275 283 276 280 272 268 267 271 273 276
299 310 385 374 355 380 334 317 298 298 300 302 302 276 269 287 279 275 291 279 276 280 278 275 272 265 273 265 276 270 266 270 268 287 287 293 294 286 276 261 247 252 90 269 270 92 266 94 104 267 275 285 295 298
305 333 364 358 362 357 343 378 362 317 306 299 298 316 283 271 274 281 281 275 279 280 274 281 281 282 290 274 274 285 280 288 297 282 287 279 269 266 265 268 259 269 262 270 272 279 240 304 292 290 300 315 327 328
381 370 363 355 344 351 348 339 356 388 395 313 306 302 312 311 290 282 288 287 280 285 276 275 271 274 268 272 281 277 270 272 275 276 281 291 287 276 272 273 278 152 276 283 82 220 286 316 330 328 332 335 336 331
446 414 376 357 348 340 341 334 351 371 368 376 387 394 328 310 311 308 309 283 279 284 276 272 283 271 272 279 279 277 285 282 281 279 280 275 289 296 277 290 290 332 323 319 327 325 322 321 324 330 345 375 380 529
430 420 407 361 345 339 338 326 341 359 355 352 353 352 360 367 372 370 374 327 313 315 325 301 316 311 292 325 347 343 289 274 283 336 334 325 324 327 208 323 331 322 312 319 334 408 390 377 368 380 391 369 404 366
426 422 401 362 340 339 329 322 329 343 345 342 332 336 331 326 325 326 334 336 334 327 328 333 333 334 332 323 319 327 307 334 329 323 319 324 318 314 312 313 318 326 359 364 365 358 377 362 347 360 359 341 328 326
428 413 369 348 340 339 321 316 324 326 340 342 326 325 320 314 316 312 313 312 316 312 307 308 309 310 309 311 312 314 315 320 322 314 311 313 313 310 336 351 333 325 327 324 325 319 329 336 346 324 314 310 310 311
354 341 341 340 339 315 324 317 314 324 321 330 338 332 320 312 309 312 313 308 306 305 306 304 303 304 308 310 311 312 306 305 304 306 347 347 350 341 320 311 312 312 309 306 293 296 300 307 312 305 287 273 295 300
362 351 345 342 335 327 331 327 313 308 313 316 320 323 330 331 330 327 323 320 319 317 317 316 318 318 338 342 341 341 342 347 351 332 336 323 318 309 301 305 297 295 285 287 283 296 280 276 281 288 296 290 283 284
368 373 370 356 346 339 333 327 325 309 304 307 313 316 317 313 315 315 319 319 320 321 321 323 325 332 344 341 338 335 327 323 308 302 309 313 309 297 293 295 292 296 290 286 286 274 284 275 277 275 275 275 277 274
332 381 411 367 369 368 353 342 330 324 305 307 306 301 303 311 315 317 318 318 318 314 318 328 324 321 322 320 317 309 317 307 299 307 306 298 293 298 286 288 294 286 285 289 285 287 277 276 279 284 274 270 272 280
310 468 543 432 395 362 367 366 351 333 318 316 312 308 302 300 302 313 315 312 313 320 319 313 315 311 304 296 298 300 295 307 290 283 293 301 295 292 281 279 283 293 284 285 282 281 285 275 285 278 285 289 291 294
318 310 455 432 405 396 378 361 351 350 346 323 317 312 309 305 304 307 317 309 321 313 305 299 297 296 296 290 296 291 291 291 288 292 294 289 295 294 298 279 285 284 285 285 284 288 290 295 292 277 277 285 296 308
320 313 310 359 366 368 360 352 352 348 347 343 334 325 318 310 310 311 299 302 310 308 301 298 297 293 295 287 286 290 292 289 286 281 281 278 282 276 279 297 297 285 291 293 289 280 286 294 309 311 300 313 319 323
321 315 313 308 313 315 345 341 341 335 332 335 330 329 320 314 310 306 303 302 303 304 299 300 297 291 287 290 293 292 293 290 281 283 286 287 287 294 273 270 276 329 321 276 297 305 334 320 296 301 300 304 309 310
332 319 312 314 308 304 306 338 334 339 333 330 324 319 321 317 310 310 305 312 308 304 302 298 291 289 287 286 287 288 286 285 286 292 283 293 283 284 297 288 313 302 304 299 292 283 293 289 285 287 290 303 301 308
339 329 320 316 309 299 308 289 311 334 337 334 338 336 327 324 320 321 319 319 324 308 308 304 299 299 296 296 295 296 298 290 300 298 287 282 295 283 284 315 298 294 290 292 283 291 294 297 288 298 299 299 302 306
354 341 331 326 318 313 301 303 305 299 335 315 337 336 337 338 330 322 321 323 326 323 314 311 307 301 300 298 299 300 295 281 292 285 288 304 299 279 287 301 283 291 281 283 282 287 285 288 285 287 292 291 302 306
388 360 346 339 323 313 313 303 304 293 286 289 298 327 336 333 334 337 337 332 328 326 330 327 320 301 297 300 303 305 300 298 311 308 311 289 285 296 287 283 299 282 290 279 280 287 284 277 287 282 288 291 303 300
405 392 383 356 342 333 321 316 310 305 290 283 284 295 316 303 323 325 322 340 358 350 342 335 316 326 329 331 342 345 344 341 337 329 304 315 291 284 288 302 290 298 289 287 287 290 282 278 283 284 281 285 296 292
424 409 407 399 373 349 334 328 325 315 312 299 292 283 293 298 287 285 305 322 328 327 327 324 327 324 326 332 332 335 329 318 315 321 315 305 307 301 291 289 296 297 293 292 288 287 290 294 277 281 285 288 286 296
467 442 430 416 402 387 365 341 331 325 323 321 312 306 305 282 275 288 293 287 284 293 304 316 325 330 331 329 329 329 331 331 325 329 330 332 316 307 305 303 304 302 299 297 299 299 287 286 286 289 293 286 295 289
415 478 466 451 430 413 402 386 363 342 338 327 327 319 315 299 284 282 284 289 299 286 283 281 293 311 310 315 320 332 333 331 330 324 319 311 335 337 324 319 321 311 309 311 308 312 307 301 299 297 295 285 290 301
463 407 466 471 468 461 434 414 400 392 369 350 337 330 327 321 311 301 283 290 290 299 288 283 279 277 276 277 279 309 317 321 326 335 336 334 327 329 322 320 321 323 322 322 325 321 321 320 317 317 317 324 323 332
424 434 408 388 444 450 445 446 441 437 405 386 379 350 337 332 324 318 309 307 299 295 288 286 281 277 282 283 283 276 274 277 280 288 317 328 326 336 342 345 340 338 334 330 326 324 321 322 324 328 329 330 331 313
360 467 430 401 386 405 465 448 444 443 431 423 412 384 360 342 332 345 333 313 303 308 303 290 285 288 283 273 270 275 279 282 276 273 268 272 277 300 328 325 327 341 354 359 348 336 321 311 315 319 321 318 321 327
370 361 458 424 398 389 382 479 452 434 424 413 443 397 374 359 340 336 337 388 322 314 309 308 304 307 308 294 297 301 282 277 274 279 281 274 266 266 267 269 273 283 333 333 351 360 358 346 332 317 307 306 313 332
310 366 462 452 422 401 376 393 461 437 430 413 406 403 427 415 400 349 346 346 374 331 322 312 306 303 295 297 301 306 307 310 311 288 288 283 279 279 274 267 267 266 265 266 269 274 285 343 365 345 332 322 310 316
Wind_Speed
31 26 35 29 34 37 39 41 44 44 40 45 47 47 63 83 83 86 88 92 103 112 118 119 120 120 121 122 124 124 124 124 123 119 116 118 120 118 121 121 121 123 121 120 124 123 34 54 67 26 50 106 101 98
40 45 34 31 41 39 36 37 37 43 49 48 54 57 61 64 77 89 90 89 89 91 95 103 110 116 117 117 119 120 119 121 120 119 117 116 120 120 121 123 120 121 122 119 122 107 117 115 109 106 102 98 96 93
52 53 44 50 39 41 47 43 43 42 45 64 56 58 68 67 68 69 77 92 92 92 93 91 94 103 108 112 108 111 111 115 114 117 117 117 119 119 119 119 120 121 119 110 108 108 106 107 98 96 94 92 92 93
26 37 58 50 54 50 57 54 53 53 49 60 70 66 69 72 71 70 75 77 79 80 88 97 99 101 100 104 107 109 112 109 111 113 105 111 107 111 114 107 104 105 104 104 103 102 97 90 92 101 94 96 89 90
14 25 34 45 60 58 54 54 58 59 59 57 66 69 76 68 78 76 82 83 84 88 87 82 89 91 96 102 108 109 112 111 112 113 115 112 110 112 109 105 95 103 106 108 104 106 99 97 100 101 104 106 106 100
16 16 26 32 39 33 67 65 53 54 56 61 72 69 62 77 79 71 85 88 85 87 87 89 95 97 100 104 105 109 111 114 111 107 110 106 107 108 106 94 89 100 15 101 94 20 98 14 20 101 104 114 116 110
18 21 24 27 30 34 39 31 49 72 62 61 58 63 79 68 70 78 80 82 86 91 84 93 96 98 100 103 101 110 108 107 106 99 101 102 99 99 96 103 114 106 100 111 112 118 81 100 104 108 105 95 86 82
29 29 28 28 27 27 29 33 28 24 26 72 67 63 68 77 91 82 80 85 78 84 80 79 79 82 83 89 99 99 94 94 97 98 98 101 105 106 102 110 115 50 115 118 19 72 99 88 74 74 73 73 73 72
22 32 34 31 27 25 26 26 20 21 24 25 24 25 77 73 71 70 83 86 84 90 84 78 91 87 89 99 100 94 102 98 97 99 101 98 100 91 88 96 109 70 70 69 64 62 63 64 66 67 69 53 46 33
20 24 29 31 27 24 24 21 16 16 20 24 23 25 25 29 34 40 41 78 75 77 82 93 93 96 94 76 51 62 104 84 97 61 54 55 57 59 43 61 53 53 55 56 55 25 29 34 33 28 25 23 3 2
16 22 30 30 26 23 21 18 16 14 18 23 25 26 29 32 35 37 34 37 41 45 46 43 41 39 42 49 52 50 47 52 50 48 48 47 51 51 49 47 45 39 18 12 7 9 5 8 11 4 16 19 14 13
20 27 28 23 20 21 19 18 17 15 16 21 24 27 30 32 32 34 35 36 37 39 40 40 40 41 44 45 47 46 45 44 43 44 44 43 42 40 29 18 19 19 10 4 3 4 4 6 10 14 10 9 12 12
12 10 11 14 17 18 20 18 17 16 16 18 22 26 29 31 33 33 35 37 37 37 39 41 42 42 43 44 44 42 41 40 41 40 25 22 17 18 20 20 17 13 10 7 13 7 3 2 6 9 11 24 8 8
9 8 9 12 15 18 19 20 20 19 20 20 20 22 23 24 27 29 31 32 33 34 35 36 36 36 33 32 32 30 27 21 17 18 17 21 20 22 21 20 19 17 20 18 18 8 17 18 14 7 7 8 11 14
7 6 13 17 19 20 22 20 21 24 23 22 21 21 22 23 23 23 23 23 22 23 24 23 22 22 20 21 23 23 22 21 24 29 27 24 22 22 22 23 22 22 22 22 18 23 17 19 16 16 18 20 21 17
14 9 11 19 22 26 25 23 22 25 28 27 25 22 22 21 20 20 21 19 20 20 19 20 21 21 22 22 22 22 22 26 26 23 24 20 21 22 23 23 23 22 23 24 24 21 22 21 21 21 22 22 23 24
14 19 8 29 26 22 23 22 20 24 28 28 26 25 25 22 20 19 19 20 19 19 23 22 21 24 22 21 22 23 23 27 25 21 22 22 23 25 23 22 25 27 25 24 26 25 26 20 25 19 25 25 24 22
13 12 20 22 20 18 20 18 18 20 22 28 27 25 26 23 21 20 20 20 23 24 26 25 23 24 26 25 28 27 27 27 25 24 27 25 24 23 26 26 29 29 30 29 29 31 32 34 30 24 25 27 27 25
12 12 12 14 15 16 15 13 12 13 15 20 23 24 24 22 22 21 22 22 25 29 29 28 27 27 28 27 26 26 24 24 27 28 28 27 27 21 20 26 27 25 25 24 22 23 23 25 26 21 22 18 13 11
11 11 9 9 8 7 8 9 9 10 12 15 17 20 22 24 23 23 24 24 27 30 30 30 30 30 29 30 31 29 30 31 30 32 34 32 29 31 22 23 24 20 20 24 24 21 12 12 17 15 15 13 11 11
7 10 10 7 5 4 4 7 8 10 11 13 16 17 20 21 21 22 23 26 32 32 34 35 34 35 33 31 31 33 34 33 35 35 26 31 28 30 29 22 19 19 16 17 18 18 15 16 16 15 15 15 14 14
10 10 12 11 10 9 5 6 1 7 11 12 14 17 18 19 21 22 26 28 36 39 39 41 40 41 38 38 36 37 39 36 40 34 28 29 32 29 27 24 23 21 20 18 21 17 16 15 16 15 14 14 14 16
18 16 16 15 15 14 11 9 8 8 12 9 16 17 18 22 23 22 25 27 32 39 41 43 42 38 40 39 38 38 36 31 33 32 36 40 36 28 29 28 28 28 27 25 24 21 19 17 16 15 15 14 14 18
22 23 21 18 18 20 20 17 15 16 13 11 10 13 18 19 20 24 29 29 27 29 35 41 47 35 33 35 37 38 35 34 40 34 33 29 30 33 32 31 34 32 32 32 27 26 24 22 21 19 17 17 17 20
28 25 28 26 25 26 27 26 24 22 22 19 17 16 16 14 17 19 19 24 30 32 34 34 30 33 34 37 37 35 31 30 29 29 31 31 34 34 34 36 34 36 36 33 32 30 29 28 27 25 24 22 20 25
33 34 33 28 30 32 31 33 33 31 29 25 26 23 21 17 15 18 19 23 24 25 26 27 27 26 26 27 28 30 31 33 33 33 34 34 34 37 37 36 38 40 39 39 37 35 33 33 33 32 30 29 29 28
33 35 35 35 35 35 37 39 39 39 38 36 32 30 28 23 22 24 25 19 17 16 16 18 22 24 25 26 27 29 31 33 34 34 35 37 37 38 39 40 41 41 41 40 41 41 39 38 38 39 39 37 37 36
22 35 37 35 38 40 41 42 45 45 43 40 39 37 33 29 31 31 28 26 25 22 22 22 22 20 21 21 22 25 27 29 30 29 28 27 36 39 39 40 42 42 42 45 44 46 44 43 44 43 42 38 39 41
23 24 30 37 38 40 44 46 45 46 47 47 44 43 40 37 35 37 33 31 28 27 27 28 28 26 25 23 21 24 25 25 25 27 29 30 31 32 33 35 37 39 40 41 43 44 45 45 43 43 41 41 38 38
36 26 24 25 35 39 40 41 42 44 45 46 48 45 43 43 44 42 38 38 37 33 32 32 32 32 31 30 27 25 24 22 21 21 25 27 27 29 32 35 38 40 40 40 40 40 39 39 40 39 38 37 37 38
66 24 23 24 26 26 42 39 39 38 39 42 44 45 47 46 44 47 46 42 41 42 40 36 35 36 35 35 33 30 29 29 28 26 24 23 22 24 27 27 29 30 32 36 38 37 34 31 32 32 32 31 31 33
67 65 23 24 25 26 23 39 35 34 34 34 29 42 46 47 45 45 45 40 46 46 45 40 36 40 40 38 37 36 37 36 34 33 31 31 30 29 28 26 25 24 27 27 28 29 31 34 35 31 29 28 29 30
76 67 30 24 25 24 23 23 33 33 33 32 36 39 37 39 41 45 45 46 44 48 48 46 42 43 44 42 40 39 37 35 35 40 39 39 37 35 34 34 32 31 30 29 28 26 25 26 29 32 33 32 28 28
Wind_Direction
228 219 210 221 208 202 202 205 208 209 194 184 190 197 209 218 220 219 223 226 230 234 237 239 242 244 245 248 250 252 253 254 256 256 258 260 262 263 265 267 270 270 271 276 275 280 264 284 281 257 270 282 281 281
221 226 230 224 211 218 217 212 202 198 197 205 199 197 201 212 215 223 224 225 226 229 234 237 239 242 243 243 246 250 252 253 254 256 259 257 260 262 264 268 268 270 273 277 278 276 279 280 279 277 279 279 280 285
226 223 223 226 224 224 222 224 220 216 207 200 211 208 201 207 211 206 218 228 228 228 230 233 237 239 243 247 250 249 252 255 257 259 260 261 262 263 264 265 266 268 272 274 276 276 276 275 278 279 278 281 284 289
231 227 228 227 226 223 226 227 222 221 218 211 206 208 208 206 211 210 211 215 221 225 229 233 236 238 240 242 245 250 251 252 254 256 257 262 259 262 266 264 263 267 276 278 279 280 278 275 279 283 283 286 284 285
244 230 229 233 236 234 226 223 228 223 221 217 214 212 212 219 211 215 214 217 220 222 225 225 230 231 230 233 242 247 252 253 253 258 260 260 261 264 266 266 271 273 273 276 278 280 281 283 283 284 284 284 284 287
253 257 231 226 228 227 233 235 227 226 227 220 217 217 220 218 221 228 218 220 227 226 228 227 229 235 233 239 239 243 248 250 254 253 255 257 259 258 262 270 272 272 281 276 281 246 281 267 272 282 283 285 287 286
270 274 240 231 226 225 226 223 230 232 228 227 222 227 219 224 224 225 227 227 228 228 232 232 234 235 236 240 245 244 248 252 252 256 256 255 258 261 265 267 267 271 277 277 276 276 275 275 277 281 280 276 277 279
253 244 236 231 226 223 224 226 224 217 216 232 232 228 228 224 226 229 228 228 232 236 235 237 240 243 243 245 247 249 252 255 257 259 260 259 259 262 264 265 268 259 271 273 252 268 271 273 271 273 276 278 280 280
217 219 221 221 218 215 216 221 221 211 210 208 206 209 232 235 234 229 230 230 235 236 237 239 240 243 247 248 248 250 251 254 258 261 264 265 266 267 267 266 270 262 264 268 270 272 273 275 276 278 281 283 285 278
192 196 198 204 207 206 206 214 214 205 202 199 193 195 196 200 205 215 221 236 235 238 240 240 245 245 247 248 246 251 250 254 260 254 255 253 254 256 254 259 261 265 269 271 273 265 263 269 276 277 272 275 125 96
163 171 173 188 195 199 195 203 204 195 196 196 196 194 198 204 210 213 217 220 223 226 229 232 236 240 243 244 246 248 246 248 251 254 255 255 254 255 260 265 269 270 263 270 261 257 214 227 246 192 137 145 169 177
144 152 165 180 188 191 194 201 199 196 193 197 201 200 202 207 211 215 218 221 222 225 231 234 236 237 239 240 243 246 250 252 251 250 252 255 257 259 258 240 247 251 254 214 171 223 169 154 141 164 195 202 204 229
118 137 159 177 176 204 199 195 200 190 193 192 195 203 206 211 216 218 219 223 227 230 231 234 237 240 242 243 245 246 247 249 251 254 247 236 217 209 224 236 241 222 207 197 248 237 247 208 169 189 251 260 258 298
142 169 195 197 198 204 207 198 197 199 198 199 195 193 194 201 209 216 222 226 228 229 230 233 235 237 237 235 234 232 229 218 195 209 204 208 205 211 220 220 226 219 235 236 242 216 245 249 252 245 239 244 259 267
97 169 207 220 220 214 213 204 196 196 211 206 200 198 200 204 205 208 207 210 213 215 218 220 218 213 193 192 194 187 188 183 195 210 212 207 205 212 220 222 229 225 230 237 231 251 242 249 253 256 264 269 273 269
23 351 254 220 213 214 220 212 200 194 205 208 209 203 204 203 206 209 210 208 209 213 209 195 192 190 184 184 180 189 178 193 212 214 218 221 217 218 229 230 229 231 237 238 246 249 248 254 262 263 262 265 264 266
12 11 211 191 188 205 210 214 204 198 200 207 207 204 212 213 212 208 207 205 208 198 189 191 186 183 187 198 196 193 199 195 216 230 230 233 229 228 236 241 239 234 242 242 251 260 261 264 270 275 279 278 273 264
7 13 80 139 162 177 179 184 191 197 199 203 207 204 206 211 211 209 201 204 195 193 198 200 200 197 196 201 200 204 206 206 214 224 233 241 245 248 243 243 246 252 256 259 261 263 266 269 271 259 262 269 273 270
357 5 18 80 108 130 151 164 173 181 190 195 198 203 204 207 207 203 209 209 203 201 205 206 206 210 207 214 221 225 224 221 223 230 236 240 243 248 253 259 262 256 259 259 256 255 261 267 270 265 267 271 271 267
338 344 356 11 34 59 138 150 162 177 185 190 194 195 197 203 207 209 212 216 213 211 214 213 211 213 219 223 226 229 227 226 232 236 243 249 255 260 250 253 258 268 264 257 269 273 258 245 258 259 266 266 257 238
299 314 319 328 334 355 27 171 173 179 183 188 194 200 203 208 214 216 217 216 216 219 217 219 224 230 234 237 237 235 237 239 242 245 252 255 256 263 271 265 259 257 252 254 260 261 256 259 264 270 274 273 246 236
273 270 281 290 293 300 293 303 286 202 197 200 207 210 211 211 215 218 221 221 215 222 223 225 230 233 237 240 242 246 245 243 248 252 248 249 253 254 259 253 245 244 248 249 256 255 257 258 264 271 268 258 245 234
259 261 258 260 271 277 276 270 263 263 219 227 217 218 217 218 219 221 226 229 227 227 232 235 239 242 244 246 251 253 254 245 252 246 248 254 250 250 252 249 249 242 248 249 257 255 258 259 261 265 267 248 248 230
251 255 257 250 252 259 258 259 253 262 264 261 252 229 225 226 231 231 235 239 237 236 237 240 242 246 248 252 254 254 252 250 260 255 252 252 250 246 246 250 238 252 251 256 261 251 254 254 256 254 259 255 250 227
261 256 245 247 246 240 247 251 252 251 260 263 259 252 242 239 236 238 241 242 242 243 244 243 240 243 246 247 251 250 249 252 252 251 250 250 247 251 250 242 249 244 250 255 257 255 250 254 256 253 248 246 247 231
254 263 259 250 242 242 242 243 243 247 247 247 253 259 254 248 241 248 246 245 242 240 240 243 244 248 247 246 247 247 245 248 250 247 246 243 242 245 249 252 249 248 252 253 255 257 259 256 251 253 252 246 242 241
252 259 259 258 254 247 239 238 241 244 245 244 242 242 245 257 253 252 253 249 245 246 245 248 250 253 253 254 254 254 255 254 254 252 250 247 244 242 244 248 250 252 253 255 255 255 251 251 251 250 248 248 245 241
335 252 254 254 250 250 247 243 240 242 243 249 247 248 243 239 249 254 253 251 250 243 245 251 250 240 244 247 250 255 254 255 257 256 255 252 254 252 251 250 251 251 252 254 255 257 256 255 254 254 254 256 255 251
319 329 260 252 251 248 248 249 247 245 244 245 244 245 247 245 241 242 252 254 250 246 244 246 252 255 256 256 256 257 257 256 257 258 256 255 256 255 253 254 255 255 254 254 255 257 260 262 264 265 265 266 263 261
345 326 320 316 261 257 257 254 250 247 247 247 246 243 241 240 241 243 243 245 250 250 246 246 248 252 254 256 256 256 258 258 261 263 263 262 262 261 261 260 259 258 258 259 259 259 260 262 264 266 266 266 264 257
356 326 321 316 312 293 251 253 255 253 245 247 249 244 241 240 239 241 240 241 245 247 248 247 247 249 250 255 255 255 255 256 256 255 253 257 261 264 265 265 265 263 263 262 260 259 261 263 264 264 263 264 265 264
354 355 326 320 316 316 315 246 246 246 246 244 244 245 244 241 242 242 241 243 240 243 248 249 247 249 252 250 253 254 254 254 254 255 254 251 251 253 256 257 261 265 265 266 266 264 261 256 258 263 267 269 268 266
353 353 336 323 318 318 317 299 239 243 243 243 243 245 237 242 241 242 243 244 240 241 242 247 246 246 250 251 253 255 255 254 253 254 256 255 253 252 252 254 256 257 260 262 263 266 271 267 260 259 261 264 268 268